Location: Amsterdam
(30.7274°N, 84.4357°W)
Time: 07:20:12
(UTC+00:00)

Transit 2A Rocket - Pass Details

Date: 23 February 2026
Orbit: 583 x 900 km, 66.7° (Epoch: 11 March)

Event Time Altitude Azimuth Distance (km) Brightness Sun altitude
Rises 21:34:58 0° 263° (W) 3,495 9.6 22.9°
Reaches altitude 10° 21:40:21 10° 303° (WNW) 2,574 8.2 21.9°
Maximum altitude 21:41:17 10° 312° (NW) 2,549 8.1 21.7°
Drops below altitude 10° 21:42:13 10° 321° (NW) 2,573 8.0 21.5°
Sets 21:47:37 0° 1° (N) 3,484 8.1 20.5°
